Location: *
(52.2090°N, 4.1550°W)
Time: 19:46:14
(UTC+00:00)

ATLAS 3B R/B - Pass Details

Date: 19 July 2019
Orbit: 1016 x 1179 km, 63.7° (Epoch: 11 August)

Event Time Altitude Azimuth Distance (km) Brightness Sun altitude
Rises 23:09:36 0° 303° (WNW) 3,762 6.4 -15.3°
Reaches altitude 10° 23:12:27 10° 312° (NW) 2,809 5.8 -15.4°
Maximum altitude 23:18:28 36° 18° (NNE) 1,577 4.1 -15.7°
Drops below altitude 10° 23:24:33 10° 84° (E) 2,850 4.9 -15.9°
Sets 23:27:28 0° 93° (E) 3,822 5.4 -16.0°
